#timestamp,LO_Frequency,Hit,StdDev 
1630602015.1,286046998.6,P
1630602016.0,286046998.6,N
1630602035.8,286046998.4,N
1630602055.6,286046998.1,N
1630602075.5,286047000.6,N
1630602095.3,286046998.3,N
1630602115.1,286046996.9,Y
1630602135.9,286046998.6,P
1630602155.7,286046999.0,P
1630602175.5,286046999.1,P
1630602195.4,286046999.4,N
1630602215.2,286046997.2,Y
1630602235.1,286046999.9,P
1630602236.0,286046999.9,N
1630602255.8,286047001.0,N
1630602275.6,286046998.2,N
1630602295.5,286047001.0,N
1630602315.3,286047000.6,N
1630602335.1,286047000.1,N
1630602355.9,286046999.8,N
1630602375.7,286046999.1,N
1630602395.5,286046999.1,N
1630602415.4,286046998.8,N
1630602435.2,286046998.9,N
1630602455.0,286046999.0,N
1630602455.9,286046999.0,N
1630602475.8,286046997.1,Y
1630602495.6,286046996.7,P
1630602515.4,286046999.6,N
1630602535.3,286046995.4,P
1630602555.1,286046996.8,N
1630602556.0,286046996.8,N
1630602575.8,286046996.5,N
1630602595.7,286046996.9,N
1630602615.5,286046997.1,N
1630602635.3,286046996.9,N
1630602655.2,286046997.8,N
1630602675.9,286046994.9,Y
1630602695.7,286046999.3,P
1630602715.6,286046998.8,N
1630602735.4,286046996.5,P
1630602755.2,286046997.0,N
1630602775.1,286046997.3,N
1630602776.0,286046997.3,N
1630602795.8,286046996.5,Y
1630602815.6,286047000.6,P
1630602835.5,286047001.0,N
1630602855.3,286047000.3,N
1630602875.1,286047002.6,N
1630602895.9,286047002.4,N
1630602915.7,286047000.1,N
1630602935.5,286047001.5,N
1630602955.4,286047002.3,N
1630602975.2,286047000.9,N
1630602995.0,286046999.8,N
1630602995.9,286046999.8,N
1630603015.8,286047002.8,N
1630603035.6,286047002.3,N
1630603055.4,286047000.1,N
1630603075.3,286046999.9,N
1630603095.1,286046999.8,N
1630603096.0,286046999.8,N
1630603115.8,286047002.7,N
1630603135.7,286047002.2,N
1630603155.5,286046999.7,N
1630603175.3,286047000.1,N
1630603195.2,286047002.5,N
1630603215.9,286047004.4,Y
1630603235.7,286047002.5,P
1630603255.6,286047002.8,P
1630603275.4,286047001.7,N
1630603295.2,286047000.7,N
1630603315.1,286047000.0,N
1630603316.0,286047000.0,N
1630603335.8,286046999.7,N
1630603355.6,286047002.3,N
1630603375.5,286047000.2,N
1630603395.3,286046999.7,N
1630603415.1,286047000.3,N
1630603435.9,286047000.0,N
1630603455.7,286046998.1,N
1630603475.5,286047001.2,N
1630603495.4,286046999.4,N
1630603515.2,286046999.5,N
1630603535.0,286046999.2,N
1630603535.9,286046999.2,N
1630603555.8,286046995.8,Y
1630603575.6,286046996.3,P
1630603595.4,286046998.0,N
1630603615.3,286046997.9,N
1630603635.1,286046993.4,Y
1630603655.8,286046995.6,P
1630603675.7,286046995.1,P
1630603695.5,286046996.4,N
1630603715.3,286046993.8,Y
1630603735.2,286046995.2,P
1630603755.0,286046997.6,P
1630603755.9,286046997.6,N
1630603775.7,286046995.4,Y
1630603795.6,286047001.1,P
1630603815.4,286047000.7,N
1630603835.2,286046998.4,N
1630603855.1,286046996.5,N
1630603856.0,286046996.5,N
1630603875.8,286046997.4,N
1630603895.6,286046997.8,N
1630603915.5,286046997.5,N
1630603935.3,286046997.1,N
1630603955.1,286046996.8,N
1630603975.9,286046997.4,N
1630603995.7,286046995.0,Y
1630604015.5,286046996.5,P
1630604035.4,286046996.7,P
1630604055.2,286046995.8,P
1630604075.0,286046996.0,Y
1630604075.9,286046996.0,P
1630604095.8,286046999.6,N
1630604115.6,286046997.3,N
1630604135.4,286046997.7,N
1630604155.3,286046996.9,N
1630604175.1,286046999.6,N
1630604195.8,286046998.9,N
1630604215.7,286046996.7,N
1630604235.5,286046997.5,N
1630604255.3,286046997.7,N
1630604275.2,286046998.0,N
1630604295.0,286046998.0,N
1630604295.9,286046998.0,N
1630604315.7,286046997.5,N
1630604335.6,286046997.3,N
1630604355.4,286046996.9,Y
1630604375.3,286046997.1,P
1630604395.1,286046997.5,P
1630604396.0,286046997.5,P
1630604415.8,286046995.0,Y
1630604435.7,286046998.6,P
1630604455.5,286047000.4,N
1630604475.3,286047000.9,N
1630604495.2,286047001.0,N
1630604515.9,286047001.0,N
1630604535.7,286046998.5,N
1630604555.6,286047001.0,N
1630604575.4,286047002.7,N
1630604595.2,286046999.9,N
1630604615.1,286047000.0,N
1630604616.0,286047000.0,N
1630604635.8,286047000.8,N
1630604655.6,286047000.8,N
1630604675.5,286047000.2,N
1630604695.3,286047000.0,N
1630604715.1,286047000.6,N
1630604735.9,286046998.6,N
1630604785.7,286047002.1,E
1630604795.6,286047001.0,N
1630604815.5,286046999.7,P
1630604835.3,286047002.7,P
1630604855.1,286047002.2,N
1630604875.9,286047002.2,N
1630604895.7,286047002.5,N
1630604915.5,286047001.8,N
1630604935.4,286047002.0,N
1630604955.2,286047001.6,N
1630604975.0,286047001.7,N
1630604975.9,286047001.7,N
1630604995.8,286047001.6,N
1630605015.6,286047001.5,N
1630605035.4,286047004.3,Y
1630605055.3,286046999.9,P
1630605075.1,286047002.7,N
1630605095.8,286047001.3,N
1630605115.7,286047002.4,N
1630605135.5,286047000.1,N
1630605155.3,286047002.1,N
1630605175.2,286046999.8,N
1630605195.0,286047001.9,N
1630605195.9,286047001.9,N
1630605215.8,286047003.5,Y
1630605235.6,286047001.5,P
1630605255.4,286047001.6,P
1630605275.3,286047001.8,P
1630605295.1,286047004.4,Y
1630605296.0,286047004.4,P
1630605315.8,286047001.8,N
1630605335.7,286047002.4,N
1630605355.5,286047003.8,Y
1630605375.3,286047001.6,P
1630605395.2,286047001.9,P
1630605415.9,286046999.7,N
1630605435.7,286047002.1,N
1630605455.6,286046999.7,N
1630605475.4,286047000.5,N
1630605495.2,286047002.8,N
1630605515.1,286047001.2,N
1630605516.0,286047001.2,N
1630605535.8,286047000.7,N
1630605555.6,286047001.9,N
1630605575.5,286047001.4,N
1630605595.3,286047001.8,N
